Weather History for Antalya, Turkey

Change the Weather History Date:

Sunday, December 22, 2013

  Actual Average Record
Temperature  
Mean Temperature 52 °F -  
Max Temperature 67 °F 60 °F 68 °F (2010)
Min Temperature 38 °F 44 °F 32 °F (2002)
Degree Days  
Heating Degree Days 12    
Growing Degree Days 2 (Base 50)    
Moisture  
Dew Point 28 °F    
Average Humidity 45    
Maximum Humidity 87    
Minimum Humidity 10    
Precipitation  
Precipitation 0.00 in 0.31 in - ()
Sea Level Pressure  
Sea Level Pressure 30.35 in    
Wind  
Wind Speed 8 mph ()    
Max Wind Speed 13 mph    
Max Gust Speed -    
Visibility 6.5 miles    
Events      
Averages and records for this station are not official NWS values.
T = Trace of Precipitation, MM = Missing Value Source: Averaged Metar Reports

Daily Weather History Graph

Daily Weather History Graph

Search for Another Location

Airport:

Trip Planner

Search our weather history database for the weather conditions in past years. The results will help you decide how hot, cold, wet, or windy it might be!

Date:

Astronomy

Dec. 22, 2013 Rise Set
Actual Time 7:06 AM EET 4:44 PM EET
Civil Twilight 6:37 AM EET 5:13 PM EET
Nautical Twilight 6:04 AM EET 5:45 PM EET
Astronomical Twilight 5:33 AM EET 6:17 PM EET
Moon 9:31 PM EET (12/22) 9:58 AM EET (12/22)
Length of Visible Light 10h 35m
Length of Day
9h 37m
Waning Gibbous, 79% of the Moon is Illuminated
Dec 22
Waning Gibbous
Dec 25
Last Quarter
Jan 1
New
Jan 8
First Quarter
Jan 16
Full

Hourly Weather History & Observations

Time (EET) Temp. Windchill Dew Point Humidity Pressure Visibility Wind Dir Wind Speed Gust Speed Precip Events Conditions
12:20 AM 44.6 °F 39.2 °F 23.0 °F 43% 30.36 in - North 10.4 mph - N/A   Clear
12:50 AM 50.0 °F - 19.4 °F 30% 30.36 in - NNW 10.4 mph - N/A   Clear
1:20 AM 48.2 °F - 21.2 °F 34% 30.36 in - North 8.1 mph - N/A   Clear
1:50 AM 42.8 °F 36.6 °F 23.0 °F 46% 30.36 in - North 11.5 mph - N/A   Clear
2:00 AM 43 °F - 22 °F 31% 30.36 in 6 mi North 11.5 mph - -  
2:20 AM 44.6 °F 40.2 °F 21.2 °F 39% 30.36 in - NNW 8.1 mph - N/A   Clear
2:50 AM 44.6 °F 40.2 °F 19.4 °F 37% 30.36 in - North 8.1 mph - N/A   Clear
3:20 AM 44.6 °F 38.4 °F 19.4 °F 37% 30.36 in - North 12.7 mph - N/A   Clear
3:50 AM 44.6 °F 39.2 °F 19.4 °F 37% 30.36 in - NNW 10.4 mph - N/A   Clear
4:20 AM 44.6 °F 39.7 °F 19.4 °F 37% 30.33 in - NNW 9.2 mph - N/A   Clear
4:50 AM 42.8 °F 36.2 °F 19.4 °F 39% 30.33 in - North 12.7 mph - N/A   Clear
5:00 AM 42 °F - 20 °F 28% 30.35 in 6 mi North 12.7 mph - -  
5:20 AM 39.2 °F 32.5 °F 21.2 °F 49% 30.36 in - North 10.4 mph - N/A   Clear
5:50 AM 42.8 °F 37.5 °F 19.4 °F 39% 30.36 in - North 9.2 mph - N/A   Clear
6:20 AM 42.8 °F 37.5 °F 17.6 °F 36% 30.36 in - North 9.2 mph - N/A   Clear
6:50 AM 39.2 °F 33.0 °F 19.4 °F 45% 30.36 in - North 9.2 mph - N/A   Clear
7:20 AM 42.8 °F 37.0 °F 17.6 °F 36% 30.36 in - North 10.4 mph - N/A   Clear
7:50 AM 41.0 °F 35.2 °F 21.2 °F 45% 30.36 in - North 9.2 mph - N/A   Clear
8:00 AM 42 °F - 21 °F 29% 30.37 in 6 mi North 9.2 mph - -  
8:20 AM 48.2 °F - 19.4 °F 32% 30.39 in - North 8.1 mph - N/A   Clear
8:50 AM 51.8 °F - 21.2 °F 30% 30.39 in - North 10.4 mph - N/A   Clear
9:20 AM 55.4 °F - 21.2 °F 26% 30.39 in - North 8.1 mph - N/A   Clear
9:50 AM 57.2 °F - 19.4 °F 23% 30.39 in - North 8.1 mph - N/A   Clear
10:20 AM 60.8 °F - 23.0 °F 23% 30.36 in - North 8.1 mph - N/A   Clear
10:50 AM 62.6 °F - 23.0 °F 22% 30.36 in - North 6.9 mph - N/A   Clear
11:00 AM 63 °F - 21 °F 10% 30.36 in 12 mi North 6.9 mph - -  
11:20 AM 64.4 °F - 23.0 °F 21% 30.36 in - North 6.9 mph - N/A   Clear
11:50 AM 66.2 °F - 24.8 °F 21% 30.33 in - North 3.5 mph - N/A   Clear
12:20 PM 66.2 °F - 19.4 °F 17% 30.33 in - North 3.5 mph - N/A   Clear
12:50 PM 64.4 °F - 32.0 °F 30% 30.33 in - SW 8.1 mph - N/A   Clear
1:20 PM 64.4 °F - 28.4 °F 26% 30.30 in - SW 6.9 mph - N/A   Clear
1:50 PM 64.4 °F - 35.6 °F 34% 30.30 in - SW 8.1 mph - N/A   Clear
2:00 PM 64 °F - 36 °F 23% 30.31 in 6 mi SW 8.1 mph - -  
2:20 PM 64.4 °F - 39.2 °F 40% 30.30 in - SW 8.1 mph - N/A   Clear
2:50 PM 64.4 °F - 37.4 °F 37% 30.30 in 6.2 mi SSW 8.1 mph - N/A   Partly Cloudy
3:20 PM 64.4 °F - 41.0 °F 42% 30.30 in 6.2 mi South 5.8 mph - N/A   Partly Cloudy
3:50 PM 62.6 °F - 39.2 °F 42% 30.30 in 6.2 mi South 5.8 mph - N/A   Partly Cloudy
4:20 PM 60.8 °F - 35.6 °F 39% 30.30 in 6.2 mi SE 2.3 mph - N/A   Partly Cloudy
4:50 PM 53.6 °F - 37.4 °F 54% 30.33 in - Calm Calm - N/A   Clear
5:00 PM 54 °F - 38 °F 43% 30.32 in 6 mi Calm Calm - -  
5:20 PM 51.8 °F - 39.2 °F 62% 30.33 in - SE 2.3 mph - N/A   Clear
5:50 PM 50.0 °F - 39.2 °F 66% 30.33 in - Variable 1.2 mph - N/A   Clear
6:20 PM 48.2 °F - 39.2 °F 71% 30.33 in - NNW 4.6 mph - N/A   Clear
6:50 PM 48.2 °F - 39.2 °F 71% 30.36 in - North 5.8 mph - N/A   Clear
7:20 PM 46.4 °F 42.9 °F 39.2 °F 76% 30.36 in - North 6.9 mph - N/A   Clear
7:50 PM 44.6 °F 42.2 °F 37.4 °F 76% 30.36 in - NNW 4.6 mph - N/A   Clear
8:00 PM 45 °F - 38 °F 70% 30.35 in 12 mi NNW 4.6 mph - -  
8:20 PM 44.6 °F 42.2 °F 37.4 °F 76% 30.36 in - NNW 4.6 mph - N/A   Clear
8:50 PM 44.6 °F 41.4 °F 37.4 °F 76% 30.36 in - NNW 5.8 mph - N/A   Clear
9:20 PM 42.8 °F 41.1 °F 37.4 °F 81% 30.36 in - NW 3.5 mph - N/A   Clear
9:50 PM 41.0 °F - 35.6 °F 81% 30.33 in 4.3 mi Variable 2.3 mph - N/A   Unknown
10:20 PM 41.0 °F 38.0 °F 37.4 °F 87% 30.33 in 4.3 mi NNW 4.6 mph - N/A   Unknown
10:50 PM 41.0 °F 37.1 °F 35.6 °F 81% 30.33 in 5.0 mi North 5.8 mph - N/A   Unknown
11:00 PM 41 °F - 35 °F 73% 30.34 in 5 mi North 5.8 mph - -   Mist
11:20 PM 41.0 °F 36.4 °F 33.8 °F 76% 30.33 in - NNW 6.9 mph - N/A   Clear
11:50 PM 41.0 °F 38.0 °F 32.0 °F 70% 30.33 in - NNW 4.6 mph - N/A   Clear